This demonstration page uses our WeatherBlox Daily Observations layout. Learn more.

Left ArrowRight Arrow

44.8408, -93.29828

Hourly Observations for January 23, 2022

Temp ( °F °C ) Dew Point ( °F °C ) Humidity (%) Winds ( mph kmh ) Pressure ( in mb ) Visibility ( mi km ) Precip ( " mm )
12:53 am 00:53 Mostly Cloudy 5 -15 -2 -18.9 72 72 N 8 13 30.14 1021 10 16 0.00 0.00
1:53 am 01:53 Mostly Clear 3 -16.1 -3 -19.4 76 76 N 14 22 30.16 1021 10 16 0.00 0.00
2:53 am 02:53 Clear 2 -16.7 -4 -20 76 76 N 16 26 30.18 1022 10 16 0.00 0.00
3:53 am 03:53 Clear 0 -17.8 -7 -21.7 72 72 N 10 17 30.21 1023 9 14 0.00 0.00
4:53 am 04:53 Clear -2 -18.9 -8 -22.2 75 75 N 13 20 30.22 1023 10 16 0.00 0.00
5:53 am 05:53 Clear -4 -20 -11 -23.9 71 71 NNE 10 17 30.23 1024 10 16 0.00 0.00
6:53 am 06:53 Clear -5 -20.6 -11 -23.9 75 75 NNW 6 9 30.24 1024 10 16 0.00 0.00
7:30 am 07:30 Clear with Patchy Fog -7 -21.7 -11 -23.9 82 82 WNW 5 7 30.30 1026 5 8 0.00 0.00
7:43 am 07:43 Sunny with Patchy Fog -7 -21.7 -12 -24.4 79 79 WNW 7 11 30.30 1026 9 14 0.00 0.00
7:53 am 07:53 Mostly Sunny -7 -21.7 -11 -23.9 82 82 WNW 7 11 30.24 1024 10 16 0.00 0.00
8:53 am 08:53 Partly Cloudy -6 -21.1 -11 -23.9 78 78 WNW 7 11 30.24 1024 10 16 0.00 0.00
9:53 am 09:53 Mostly Cloudy -2 -18.9 -8 -22.2 75 75 NNW 3 6 30.22 1023 10 16 0.00 0.00
10:53 am 10:53 Mostly Cloudy -2 -18.9 -10 -23.3 68 68 Calm 30.19 1023 10 16 0.00 0.00
11:53 am 11:53 Mostly Cloudy 2 -16.7 -7 -21.7 65 65 Calm 30.16 1021 10 16 0.00 0.00
12:53 pm 12:53 Mostly Cloudy 2 -16.7 -7 -21.7 65 65 SSW 6 9 30.12 1020 10 16 0.00 0.00
1:53 pm 13:53 Mostly Cloudy 4 -15.6 -7 -21.7 60 60 SW 7 11 30.08 1019 10 16 0.00 0.00
2:53 pm 14:53 Partly Cloudy 5 -15 -7 -21.7 57 57 SW 9 15 30.05 1018 10 16 0.00 0.00
3:53 pm 15:53 Mostly Cloudy 5 -15 -7 -21.7 57 57 SSW 7 11 30.02 1017 10 16 0.00 0.00
4:53 pm 16:53 Cloudy 5 -15 -5 -20.6 63 63 VRB 6 9 29.96 1015 10 16 0.00 0.00
5:42 pm 17:42 Cloudy with Light Snow 6 -14.4 -5 -20.6 60 60 SSE 6 9 29.98 1015 10 16 0.00 0.00
5:53 pm 17:53 Cloudy with Light Snow 6 -14.4 -4 -20 63 63 SSE 7 11 29.93 1014 9 14 0.00 0.00
6:53 pm 18:53 Cloudy with Light Snow 5 -15 -4 -20 66 66 SSE 12 19 29.88 1012 9 14 0.00 0.00
7:53 pm 19:53 Cloudy with Light Snow 5 -15 -3 -19.4 69 69 SSE 8 13 29.86 1011 9 14 0.00 0.00
8:29 pm 20:29 Cloudy with Light Snow 5 -15 -2 -18.9 72 72 S 8 13 29.87 1012 3 4 0.00 0.00
8:44 pm 20:44 Cloudy with Light Snow 5 -15 -2 -18.9 72 72 SSE 8 13 29.86 1011 2 3 0.01 0.25
8:53 pm 20:53 Cloudy with Light Snow 5 -15 -1 -18.3 76 76 S 10 17 29.80 1009 2 3 0.01 0.25
9:53 pm 21:53 Cloudy with Light Snow 5 -15 1 -17.2 83 83 SE 8 13 29.78 1008 2 3 0.02 0.51
10:40 pm 22:40 Cloudy with Light Snow 6 -14.4 2 -16.7 83 83 SE 9 15 29.78 1008 3 5 0.01 0.25
10:50 pm 22:50 Cloudy with Light Snow 7 -14 1 -17 78 78 SE 8 13 29.77 1008 3 4 0.01 0.25
10:53 pm 22:53 Cloudy with Light Snow 6 -14.4 2 -16.7 83 83 SE 8 13 29.73 1007 3 4 0.01 0.25
11:05 pm 23:05 Cloudy with Light Snow 6 -14.4 2 -16.7 83 83 ESE 8 13 29.77 1008 3 5 0.00 0.00
11:13 pm 23:13 Cloudy with Light Snow 7 -13.9 2 -16.7 80 80 SE 8 13 29.77 1008 5 8 0.00 0.00
11:26 pm 23:26 Cloudy with Light Snow 7 -13.9 3 -16.1 84 84 SE 9 15 29.75 1007 3 4 0.01 0.25
11:42 pm 23:42 Cloudy with Light Snow 8 -13.3 3 -16.1 80 80 SE 8 13 29.74 1007 4 6 0.01 0.25
11:49 pm 23:49 Cloudy with Light Snow 9 -13 3 -16 78 78 SE 9 15 29.73 1007 3 4 0.01 0.25
11:53 pm 23:53 Cloudy with Light Snow 8 -13.3 3 -16.1 80 80 ESE 7 11 29.70 1006 3 4 0.01 0.25
11:56 pm 23:56 Cloudy with Light Snow 8 -13.3 4 -15.6 83 83 SE 7 11 29.73 1007 3 5 0.00 0.00

Powered by AerisWeather